Location: Huppendorf
(49.9333°N, 11.1500°E)
Time: 14:23:51
(UTC+00:00)

Daily predictions for brighter satellites

Satellite Brightness Start Highest point End
(mag) Time Altitude Azimuth Time Altitude Azimuth Time Altitude Azimuth
Cosmos 1898 Rocket 3.9 17:17:52 10° NNW 17:22:47 41° ENE 17:27:41 10° SE
Cosmos 44 Rocket 3.5 17:18:37 10° NNW 17:23:14 48° NE 17:27:52 10° ESE
NOSS 2-3 (D) 3.8 17:19:02 10° SSW 17:23:19 61° SE 17:28:26 10° NE
STARLINK-78 3.9 17:19:59 10° W 17:23:59 62° NNW 17:27:59 10° ENE
Cosmos 2242 Rocket 3.8 17:19:52 10° N 17:24:20 51° ENE 17:28:47 10° SSE
STARLINK-1019 3.5 17:22:01 10° W 17:25:25 58° NNW 17:28:49 10° ENE
STARLINK-1037 3.7 17:21:24 10° WSW 17:25:31 74° SSE 17:29:40 10° ENE
STARLINK-57 3.9 17:21:45 10° W 17:25:44 60° NNW 17:29:44 10° ENE
USA 229 DEB 4.0 17:19:17 10° SW 17:25:53 73° NW 17:32:53 10° NE
USA 229 3.9 17:19:24 10° SW 17:26:00 74° NW 17:32:59 10° NE
Cosmos 1703 Rocket 4.2 17:22:28 10° N 17:26:36 35° ENE 17:30:44 10° SE
STARLINK-49 3.9 17:23:17 10° W 17:27:17 61° N 17:31:17 10° ENE
SJ 16-02 1.9 17:23:20 10° N 17:27:27 37° ENE 17:31:32 10° SE
CENTAUR R/B 3.9 17:21:02 10° NW 17:27:36 33° NNE 17:34:59 10° E
STARLINK-1012 3.5 17:24:14 10° W 17:27:38 57° NNW 17:31:02 10° ENE
STARLINK-48 3.8 17:25:00 10° WNW 17:28:51 56° N 17:32:42 10° E
STARLINK-27 3.9 17:24:57 10° W 17:28:56 60° N 17:32:56 10° ENE
ARGOS 4.3 17:26:26 10° ESE 17:30:33 23° ENE 17:34:41 10° N
STARLINK-1059 3.6 17:26:27 10° WSW 17:30:35 78° SSE 17:34:44 10° ENE
STARLINK-74 3.9 17:26:38 10° W 17:30:37 60° N 17:34:37 10° ENE
Aureole 2 Rocket 3.1 17:28:36 10° SW 17:31:09 41° WNW 17:33:48 10° NNE
STARLINK-1026 3.6 17:28:40 10° W 17:32:04 56° N 17:35:28 10° ENE
Okean-O 3.5 17:27:46 10° S 17:32:08 57° W 17:36:32 10° NNW
STARLINK-39 3.9 17:28:16 10° W 17:32:15 59° N 17:36:15 10° ENE
STARLINK-1023 3.5 17:29:32 10° W 17:32:46 53° N 17:36:01 10° ENE
NOSS 3-1 (A) 3.4 17:27:23 10° SW 17:33:00 90° NW 17:39:39 10° NE
STARLINK-31 3.9 17:29:58 10° W 17:33:57 59° N 17:37:56 10° ENE
STARLINK-1013 3.6 17:30:54 10° W 17:34:18 55° N 17:37:42 10° ENE
STARLINK-61 3.9 17:30:50 10° W 17:34:40 53° N 17:38:29 10° ENE
STARLINK-1057 3.6 17:31:25 10° WSW 17:35:34 82° SSE 17:39:43 10° ENE
Cosmos 1939 Rocket 2.9 17:31:35 10° SSE 17:35:40 64° ENE 17:39:47 10° N
STARLINK-26 3.5 17:32:16 10° WNW 17:35:41 53° N 17:38:56 11° E
STARLINK-69 3.9 17:31:50 10° W 17:35:49 57° N 17:39:48 10° ENE
STARLINK-1009 3.6 17:33:08 10° W 17:36:32 55° N 17:39:53 10° ENE
STARLINK-21 3.9 17:33:19 10° W 17:37:18 58° N 17:41:14 10° ENE
CSL-04 Rocket 3.7 17:32:56 10° SSE 17:38:26 74° ENE 17:43:53 10° NNW
STARLINK-1015 3.6 17:35:24 10° W 17:38:48 54° N 17:42:04 11° ENE
STARLINK-45 3.9 17:35:12 10° W 17:39:11 56° N 17:43:01 11° ENE
STARLINK-1034 3.6 17:36:22 10° WSW 17:40:31 86° SSE 17:44:34 11° ENE
STARLINK-70 3.9 17:36:45 10° W 17:40:44 57° N 17:44:30 11° ENE
STARLINK-76 3.9 17:38:17 10° W 17:42:16 57° N 17:45:59 12° ENE
STARLINK-1053 4.5 17:38:41 10° SSW 17:42:25 33° SE 17:45:46 12° E
ATLAS 3B R/B 3.9 17:37:00 10° NW 17:42:30 26° NNE 17:48:07 10° ENE
CZ-2D R/B 3.2 17:39:29 10° SSE 17:43:21 74° ENE 17:47:16 10° N
STARLINK-1014 3.6 17:40:24 10° W 17:43:54 57° N 17:47:05 12° ENE
STARLINK-23 3.9 17:39:57 10° W 17:43:55 56° N 17:47:34 12° ENE
STARLINK-80 3.5 17:41:32 10° WNW 17:45:22 69° NNE 17:48:42 13° E
STARLINK-1068 3.6 17:41:21 10° WSW 17:45:31 90° ENE 17:49:21 12° ENE
STARLINK-32 3.9 17:41:35 10° W 17:45:34 56° N 17:49:08 12° ENE
CZ-2C R/B 4.1 17:41:03 10° ESE 17:45:54 29° ENE 17:50:39 10° N
CZ-4 R/B 1.9 17:42:50 10° S 17:46:59 67° WSW 17:51:06 10° NNW
STARLINK-40 4.0 17:43:16 10° W 17:47:14 56° N 17:50:45 13° ENE
STARLINK-1061 4.4 17:43:34 10° SSW 17:47:21 36° SE 17:50:32 14° E
STARLINK-44 4.0 17:44:55 10° W 17:48:53 56° N 17:52:19 13° ENE
Lacrosse 4 Rocket 4.0 17:46:22 10° WNW 17:49:20 18° NNW 17:52:21 10° N
STARLINK-37 4.0 17:46:43 10° W 17:50:42 55° N 17:54:02 14° ENE
YAOGAN 1 2.8 17:46:50 10° S 17:51:09 78° WSW 17:55:31 10° NNW
Cosmos 1633 Rocket 4.1 17:47:00 10° SSW 17:51:13 49° WNW 17:55:28 10° N
CRYOSAT 2 4.3 17:46:46 10° SSE 17:51:39 75° E 17:56:34 10° N
STARLINK-36 4.0 17:48:14 10° W 17:52:12 55° N 17:55:30 14° ENE
STARLINK-1067 4.3 17:48:28 10° SSW 17:52:19 38° SE 17:55:20 15° E
STARLINK-64 3.8 17:48:52 10° WNW 17:52:23 50° N 17:55:09 15° ENE
Cosmos 2263 4.4 17:47:18 10° SSW 17:53:05 81° WNW 17:58:53 10° NNE
STARLINK-33 3.6 17:50:30 10° WNW 17:53:42 47° N 17:56:01 17° ENE
STARLINK-68 4.0 17:50:07 10° W 17:54:05 54° N 17:57:17 15° ENE
Ariane Rocket 3.3 17:49:16 10° SE 17:54:08 47° ENE 17:59:02 10° N
STARLINK-55 3.5 17:51:53 10° WNW 17:55:04 48° N 17:57:20 17° ENE
STARLINK-1060 3.6 17:51:18 10° WSW 17:55:28 83° NNW 17:58:55 15° ENE
STARLINK-63 4.0 17:51:40 10° W 17:55:38 54° N 17:58:46 15° ENE
SJ-6B 4.0 17:53:43 14° ESE 17:55:45 21° ENE 17:58:42 10° NNE
STARLINK-66 3.5 17:52:47 10° WNW 17:55:58 48° N 17:58:12 18° ENE
USA 116 3.9 17:51:59 10° NNE 17:56:09 76° ESE 18:00:50 10° S
STARLINK-28 3.5 17:53:29 10° WNW 17:56:41 48° N 17:58:52 18° ENE
STARLINK-35 4.0 17:53:13 10° W 17:57:11 54° N 18:00:16 16° ENE
STARLINK-1058 4.2 17:53:22 10° SW 17:57:15 41° SE 18:00:06 17° E
Cosmos 990 Rocket 3.9 17:52:08 10° NNW 17:57:19 74° ENE 18:02:27 10° SSE
NOSS 2-3 (C) 4.0 17:52:59 10° SW 17:57:25 76° NW 18:02:50 10° NE
STARLINK-42 3.5 17:54:21 10° WNW 17:57:30 47° N 17:59:38 18° ENE
FREGAT/IRIS 3.7 17:57:40 20° E 17:58:13 21° ENE 18:00:23 10° NNE
STARLINK-51 4.0 17:54:53 10° W 17:58:51 54° N 18:01:52 16° ENE
STARLINK-1029 3.5 17:56:32 10° W 17:59:38 49° N 18:01:47 18° ENE
STARLINK-1007 3.6 17:57:07 10° W 18:00:22 48° N 18:02:38 18° ENE
STARLINK-1030 3.7 17:56:20 10° WSW 18:00:28 80° NNW 18:03:43 16° ENE
STARLINK-30 4.0 17:56:34 10° W 18:00:31 54° N 18:03:27 17° ENE
CSL-04 Debris 4.4 17:55:13 10° S 18:00:41 75° WSW 18:06:13 10° NNW
Cosmos 1943 Rocket 3.3 17:55:48 10° SW 18:01:07 45° NW 18:06:26 10° NNE
SKYMED 2 4.4 17:56:59 10° N 18:01:15 55° WNW 18:05:29 10° SSW
Cosmos 2297 Rocket 3.1 17:56:36 10° NNW 18:01:33 29° NE 18:04:59 17° E
Cosmos 1933 Rocket 3.5 17:57:43 10° S 18:02:08 90° ESE 18:06:32 10° N
STARLINK-72 4.0 17:58:14 10° W 18:02:11 54° N 18:05:03 18° ENE
STARLINK-1043 4.1 17:58:17 10° SW 18:02:13 44° SE 18:04:53 19° E
STARLINK-50 4.0 17:59:53 10° W 18:03:51 54° N 18:06:39 18° ENE
Nadezhda 4 Rocket 4.2 17:58:27 10° N 18:04:36 50° ENE 18:10:43 10° SSE
SJ-11-01 4.4 18:00:08 10° SE 18:04:40 53° ENE 18:09:13 10° N
NOSS 2 (A) 4.3 18:02:17 10° NW 18:04:50 66° SW 18:06:37 15° SSE
STARLINK-1020 3.7 18:01:18 10° WSW 18:05:26 77° NNW 18:08:29 18° ENE
STARLINK-59 4.0 18:01:39 10° W 18:05:37 54° N 18:08:19 19° ENE
STARLINK-1065 4.0 18:03:01 10° SW 18:06:59 47° SSE 18:09:29 21° E
STARLINK-56 4.0 18:03:13 10° W 18:07:11 54° N 18:09:50 19° ENE
STARLINK-73 4.0 18:04:52 10° W 18:08:50 54° N 18:11:25 20° ENE
Cosmos 1340 3.7 18:05:21 10° SSW 18:08:59 49° WNW 18:12:41 10° N
STARLINK-1010 3.6 18:06:29 10° WNW 18:09:40 47° N 18:11:28 22° ENE
IRS-1A Rocket 4.2 18:04:24 10° SSE 18:09:48 61° ENE 18:15:16 10° N
Cosmos 1346 Rocket 3.3 18:06:03 10° SSW 18:09:59 63° WNW 18:13:55 10° N
STARLINK-1052 3.7 18:06:17 10° WSW 18:10:26 74° NNW 18:13:16 20° ENE
STARLINK-38 4.0 18:06:34 10° W 18:10:31 54° N 18:13:02 21° ENE
Cosmos 1937 Rocket 3.4 18:06:48 10° NNW 18:12:05 72° ENE 18:17:16 10° SSE
STARLINK-1063 3.9 18:08:06 10° SW 18:12:06 50° SSE 18:14:25 23° E
STARLINK-65 4.0 18:08:11 10° W 18:12:09 54° N 18:14:36 21° ENE
STARLINK-1047 3.8 18:08:35 10° WSW 18:12:46 72° NNW 18:15:33 20° ENE
Cosmos 1464 Rocket 4.0 18:06:38 10° S 18:12:55 67° E 18:19:16 10° NNE
STARLINK-53 4.0 18:09:58 10° WNW 18:13:56 53° N 18:16:17 22° ENE
Cosmos 1515 4.1 18:11:08 10° N 18:14:44 40° ENE 18:17:27 16° SE
ADEOS Rocket 3.5 18:07:10 10° NNE 18:15:01 78° ESE 18:22:38 10° S
Genesis I 3.4 18:11:18 10° NNW 18:15:06 51° NE 18:17:06 25° ESE
USA 186 2.5 18:15:46 25° NE 18:15:46 25° NE 18:17:34 10° N
MONITOR-E 4.3 18:16:06 35° E 18:16:16 35° ENE 18:18:46 10° N
USA 238 DEB 4.0 18:09:40 10° NW 18:16:39 55° NE 18:21:52 20° ESE
USA 238 4.1 18:09:47 10° NW 18:16:44 54° NE 18:21:55 20° ESE
STARLINK-1064 3.8 18:13:02 10° SW 18:17:04 53° SSE 18:19:12 25° E
Meteor 2-11 Rocket 4.3 18:13:09 10° S 18:19:11 71° E 18:25:15 10° NNE
DMSP B5D1-3 4.5 18:14:34 10° NNE 18:19:46 88° ESE 18:24:56 10° SSW
STARLINK-1033 3.8 18:16:16 10° W 18:20:24 69° NNW 18:22:50 24° ENE
Cosmos 2227 Rocket 2.9 18:15:39 10° NNW 18:20:49 34° NE 18:23:26 23° E
Meteor 1-20 Rocket 4.2 18:16:03 10° S 18:21:33 88° W 18:27:12 10° NNE
STARLINK-1041 3.7 18:17:59 10° SW 18:22:02 57° SSE 18:23:59 28° E
Cosmos 2221 Rocket 3.8 18:20:42 10° N 18:25:06 48° ENE 18:28:33 15° SE
SL-24 DEB 4.5 18:20:41 10° SSE 18:25:08 46° ENE 18:29:36 10° N
Cosmos 1656 Rocket 4.0 18:19:56 10° SW 18:25:27 69° WNW 18:31:06 10° NNE
STARLINK-1038 3.7 18:22:54 10° SW 18:26:59 60° SSE 18:28:45 31° E
STARLINK-1024 3.8 18:26:16 10° W 18:30:24 65° NNW 18:32:25 28° ENE
H-2A R/B 2.1 18:25:51 10° SSE 18:31:13 68° ENE 18:36:39 10° N
STARLINK-1046 3.6 18:27:52 10° SW 18:31:58 64° SSE 18:33:33 35° E
STARLINK 1040 3.2 18:29:38 10° WNW 18:32:20 42° N 18:32:39 40° NNE
Cosmos 2034 Rocket 3.9 18:29:20 10° S 18:35:27 70° E 18:41:35 10° NNE
STARLINK-22 3.4 18:32:22 10° WNW 18:35:36 52° N 18:36:15 43° NE
Cosmos 372 Rocket 4.1 18:31:27 10° NNW 18:36:37 53° ENE 18:39:10 28° SE
STARLINK-1039 3.6 18:32:51 10° SW 18:36:58 68° SSE 18:38:22 39° E
STARLINK-41 3.3 18:33:52 10° WNW 18:37:06 53° N 18:37:40 46° NE
STARLINK-1016 3.6 18:34:40 10° WNW 18:37:58 48° N 18:38:43 40° NE
Cosmos 220 Rocket 3.8 18:34:14 10° SSW 18:38:32 77° ESE 18:42:48 10° NNE
STARLINK-1008 3.6 18:36:20 10° WNW 18:39:39 48° N 18:40:20 41° NE
STARLINK-1032 3.9 18:36:16 10° W 18:40:23 62° N 18:41:59 34° ENE
STARLINK-75 3.2 18:38:12 10° WNW 18:41:32 58° NNE 18:41:58 52° NE
STARLINK-1045 3.5 18:37:48 10° WSW 18:41:56 72° SSE 18:43:08 44° E
STARLINK-58 3.5 18:39:09 10° WNW 18:42:40 55° N 18:43:17 46° NE
STARLINK-24 3.9 18:38:46 10° WNW 18:42:44 56° N 18:43:51 40° ENE
STARLINK-1025 3.6 18:40:30 10° WNW 18:43:49 49° N 18:44:20 44° NE
STARLINK-62 3.5 18:40:52 10° WNW 18:44:22 55° N 18:44:55 49° NE
Resurs 1-3 4.1 18:44:36 38° ENE 18:44:50 38° ENE 18:48:55 10° N
STARLINK-1011 3.9 18:41:15 10° W 18:45:22 60° N 18:46:45 37° NE
STARLINK-1017 3.5 18:42:36 10° WNW 18:45:55 49° N 18:46:21 46° NNE
STARLINK-34 3.4 18:42:29 10° WNW 18:46:00 56° N 18:46:29 50° NE
Okean 1 4.3 18:42:18 10° NNW 18:46:10 47° W 18:49:59 10° SSW
Lacrosse 5 rocket 1.8 18:42:24 10° NW 18:46:56 58° NNE 18:48:11 42° E
STARLINK-1050 3.5 18:42:48 10° WSW 18:46:57 78° SSE 18:47:59 49° E
STARLINK-1035 4.0 18:42:54 10° W 18:47:08 59° N 18:48:33 38° NE
Okean 1-7 4.2 18:43:05 10° NNW 18:47:13 44° W 18:51:20 10° SSW
STARLINK-1031 3.9 18:43:18 10° W 18:47:22 58° N 18:48:37 39° NE
Cosmos 468 Rocket 4.2 18:43:03 10° SSW 18:48:21 76° WNW 18:53:42 10° NNE
MetOp-A 4.3 18:46:49 32° ESE 18:48:57 50° ENE 18:54:07 10° N
Cosmos 2219 3.2 18:43:34 10° NNW 18:49:20 71° ENE 18:52:15 30° SE
STARLINK-1036 3.9 18:46:15 10° W 18:50:21 59° N 18:51:32 41° NE
STARLINK-1055 3.5 18:47:46 10° WSW 18:51:55 82° SSE 18:52:45 55° ENE
STARLINK-1048 3.5 18:48:57 10° WNW 18:52:19 50° N 18:52:28 49° NNE
Cosmos 1092 Rocket 3.9 18:46:10 10° N 18:52:32 71° ENE 18:58:48 10° SSE
STARLINK-81 3.8 18:49:30 10° WNW 18:53:29 56° N 18:54:10 49° NE
MOS 1 4.3 18:48:15 10° SSE 18:53:55 80° WSW 18:59:36 10° NNW
Lacrosse 5 1.8 18:49:02 10° SW 18:54:04 65° SE 18:55:38 42° ENE
STARLINK-1049 3.5 18:50:53 10° WNW 18:54:15 50° N 18:54:21 50° NNE
STARLINK-54 3.7 18:51:21 10° WNW 18:55:20 58° N 18:55:56 51° NE
STARLINK-1044 4.0 18:51:16 10° W 18:55:22 58° N 18:56:19 45° NE
STARLINK-1051 3.6 18:53:04 10° WNW 18:56:26 51° N 18:56:26 51° N
Meteor 2-4 Rocket 3.8 18:50:38 10° NNW 18:56:36 88° W 19:02:32 10° S
STARLINK-77 3.8 18:52:49 10° WNW 18:56:48 57° N 18:57:20 52° NE
STARLINK-1022 3.5 18:52:43 10° WSW 18:56:53 86° SSE 18:57:32 62° ENE
STARLINK-1027 4.1 18:53:37 10° W 18:57:50 57° N 18:58:47 45° NE
STARLINK-1028 3.6 18:54:56 10° WNW 18:58:14 51° N 18:58:14 51° N
STARLINK-25 3.7 18:54:28 10° WNW 18:58:27 58° N 18:58:55 53° NE
USA 234 3.8 18:55:20 27° ENE 18:58:43 50° N 19:04:59 10° WNW
Meteor 1-14 Rocket 4.5 18:53:14 10° SSW 18:58:44 69° WNW 19:04:20 10° N
Cosmos 2263 Rocket 4.0 18:55:33 10° N 18:59:00 16° NNE 18:59:45 16° NE
Cosmos 1634 Rocket 4.1 18:53:11 10° SSE 18:59:13 50° E 19:05:18 10° NNE
GP-B 3.9 19:01:33 35° NE 19:01:33 35° NE 19:04:32 10° N
STARLINK-71 3.7 18:56:20 10° WNW 19:00:19 59° N 19:00:42 56° NE
CZ-2C R/B 4.4 18:55:36 10° NNE 18:57:07 17° NE 18:57:07 17° NE
STARLINK-1021 3.6 18:57:08 10° WNW 19:00:21 51° N 19:00:21 51° N
Gbstr 26 Del rocket 3.0 18:56:52 10° WSW 19:01:04 85° SSE 19:02:07 55° ENE
STARLINK-79 3.7 18:57:47 10° WNW 19:01:47 58° N 19:02:07 56° NNE
STARLINK-1042 3.5 18:57:43 10° WSW 19:01:53 89° SE 19:02:20 70° ENE
Cosmos 1814 Rocket 3.8 18:57:07 10° S 19:02:11 64° ESE 19:07:17 10° NNE
STARLINK-1019 3.7 18:59:20 10° WNW 19:02:28 51° N 19:02:28 51° N
Cosmos 2369 Rocket 4.3 18:58:33 10° W 19:03:12 25° NW 19:07:54 10° NNE
STARLINK-78 3.7 18:59:28 10° WNW 19:03:28 59° N 19:03:43 57° NNE
Cosmos 2195 Rocket 4.3 18:58:18 10° N 19:04:27 73° E 19:08:27 23° SSE
SWAS 4.3 19:00:10 10° NNW 19:04:28 77° ENE 19:04:48 71° ESE
STARLINK-1012 3.7 19:01:34 10° WNW 19:04:36 50° NNW 19:04:36 50° NNW
STARLINK-57 3.7 19:01:13 10° WNW 19:05:13 60° N 19:05:23 59° NNE
STARLINK-1037 3.9 19:01:10 10° W 19:05:16 56° N 19:05:48 51° NNE
SJ 16-02 3.3 19:02:09 10° NW 19:05:55 28° W 19:09:40 10° SSW
STARLINK-49 3.7 19:02:45 10° WNW 19:06:45 60° N 19:06:52 59° NNE
STARLINK-1056 3.5 19:02:42 10° WSW 19:06:51 87° NNW 19:07:06 78° NE
NOSS 3-2 (A) 3.9 18:59:33 10° NW 19:06:56 82° NE 19:10:56 34° SE
STARLINK-48 3.5 19:03:43 10° WNW 19:07:36 67° SSW 19:07:38 67° SSW
Cosmos 841 Rocket 3.3 19:03:05 10° SSW 19:08:14 79° ESE 19:13:27 10° NNE
STARLINK-27 3.7 19:04:25 10° WNW 19:08:25 60° N 19:08:27 60° NNE
Cosmos 1763 Rocket 3.9 19:03:32 10° SW 19:08:44 64° WNW 19:14:02 10° NNE
STARLINK-1026 3.9 19:06:00 10° WNW 19:08:53 48° NNW 19:08:53 48° NNW
STARLINK-1023 4.0 19:06:19 10° WNW 19:08:52 43° NW 19:08:52 43° NW
STARLINK-74 3.7 19:06:06 10° WNW 19:10:04 61° N 19:10:04 61° N
Cosmos 2298 Rocket 3.9 19:04:44 10° NNW 19:10:07 90° N 19:12:02 41° SSE
ARGOS 3.4 19:04:54 10° S 19:10:19 71° WSW 19:15:46 10° NNW
STARLINK-1059 3.9 19:06:15 10° W 19:10:21 56° N 19:10:40 54° NNE
Resurs 01 Rocket 2.2 19:11:23 42° NNE 19:11:23 42° NNE 19:14:47 10° N
NOSS 3-2 (C) 4.0 19:03:29 10° NW 19:10:46 67° NE 19:13:51 40° ESE
STARLINK-1013 4.0 19:08:15 10° WNW 19:11:03 46° NNW 19:11:03 46° NNW
STARLINK-39 3.7 19:07:43 10° WNW 19:11:38 61° N 19:11:38 61° N
STARLINK-1054 3.5 19:07:39 10° WSW 19:11:49 84° NNW 19:11:52 83° N
STARLINK-26 3.9 19:09:23 10° WNW 19:12:15 51° WSW 19:12:15 51° WSW
STARLINK-31 3.8 19:09:25 10° WNW 19:13:16 61° N 19:13:16 61° N
STARLINK-61 3.6 19:09:46 10° WNW 19:13:23 71° NW 19:13:23 71° NW
STARLINK-1009 4.1 19:10:28 10° WNW 19:13:11 45° NW 19:13:11 45° NW
ARGOS Delta rocket 3.8 19:13:10 33° S 19:15:04 72° W 19:19:37 10° NNW
STARLINK-69 3.8 19:11:16 10° WNW 19:15:02 62° N 19:15:02 62° N
STARLINK-1057 4.0 19:11:16 10° W 19:15:21 55° N 19:15:27 55° N
Cosmos 2208 Rocket 4.0 19:09:58 10° SSW 19:15:23 86° WNW 19:20:46 10° NNE
SPOT 3 Rocket 3.5 19:13:10 32° SSE 19:15:38 85° WSW 19:20:54 10° NNW
Meteor 1-11 Rocket 3.6 19:10:26 10° S 19:15:54 61° E 19:21:21 10° NNE
STARLINK-1015 4.2 19:12:45 10° WNW 19:15:22 43° NW 19:15:22 43° NW
STARLINK-21 3.8 19:12:45 10° WNW 19:16:28 61° NNW 19:16:28 61° NNW
STARLINK-1062 3.6 19:12:38 10° WSW 19:16:39 79° NW 19:16:39 79° NW
STARLINK-45 3.9 19:14:37 10° WNW 19:18:15 61° NNW 19:18:15 61° NNW
CENTAUR R/B 3.2 19:12:01 10° NW 19:19:46 65° NE 19:22:39 44° ESE
STARLINK-70 3.9 19:16:11 10° WNW 19:19:45 60° NNW 19:19:45 60° NNW
STARLINK-1034 4.1 19:16:15 10° W 19:20:13 55° N 19:20:13 55° N
Cosmos 389 Rocket 3.9 19:17:42 10° NNW 19:19:48 32° N 19:19:48 32° N
STARLINK-1014 4.4 19:17:53 10° WNW 19:20:29 41° NW 19:20:29 41° NW
STARLINK-76 4.0 19:17:43 10° WNW 19:21:13 58° NNW 19:21:13 58° NNW
STARLINK-1053 3.8 19:17:38 10° WSW 19:21:26 70° WNW 19:21:26 70° WNW
STARLINK-23 4.0 19:19:22 10° WNW 19:22:49 57° NNW 19:22:49 57° NNW
STARLINK-32 4.1 19:21:01 10° WNW 19:24:23 55° NW 19:24:23 55° NW
STARLINK-1068 4.2 19:21:14 10° W 19:25:00 53° NNW 19:25:00 53° NNW
CZ-2C R/B 3.8 19:19:47 10° S 19:25:28 57° W 19:31:01 10° NNW
STARLINK-40 4.1 19:22:40 10° WNW 19:25:59 54° NW 19:25:59 54° NW
STARLINK-1061 4.0 19:22:36 10° WSW 19:26:12 63° WNW 19:26:12 63° WNW
Cosmos 2150 Rocket 4.2 19:21:26 10° NNW 19:26:51 74° WSW 19:28:22 48° S
STARLINK-44 4.2 19:24:19 10° WNW 19:27:33 52° NW 19:27:33 52° NW
STARLINK-37 4.3 19:26:06 10° WNW 19:29:16 51° NW 19:29:16 51° NW
SJ-6B 4.1 19:29:19 32° SW 19:30:12 37° W 19:33:48 10° NNW
STARLINK-36 4.3 19:27:37 10° WNW 19:30:44 49° NW 19:30:44 49° NW
STARLINK-1067 4.2 19:27:36 10° WSW 19:31:00 55° WNW 19:31:00 55° WNW
Cosmos 1125 Rocket 3.4 19:26:44 10° NNW 19:32:01 77° NE 19:32:01 77° NE
STARLINK-68 4.4 19:29:30 10° WNW 19:32:31 48° NW 19:32:31 48° NW
ATLAS 3B R/B 2.9 19:28:09 10° NW 19:34:42 51° NE 19:35:31 49° ENE
Cosmos 540 Rocket 3.5 19:29:42 10° SSW 19:34:50 74° WNW 19:40:01 10° NNE
STARLINK-63 4.5 19:31:03 10° WNW 19:34:01 46° NW 19:34:01 46° NW
STARLINK-1060 4.5 19:31:14 10° WNW 19:34:34 47° NW 19:34:34 47° NW
STARLINK-1058 4.4 19:32:35 10° W 19:35:46 49° W 19:35:46 49° W
Cosmos 1066 Rocket 4.1 19:36:16 10° N 19:41:59 78° ENE 19:41:59 78° ENE
Cosmos 2297 Rocket 2.4 19:40:25 10° NW 19:46:03 64° WSW 19:46:50 57° SSW
CZ-2C R/B 4.2 19:41:50 10° N 19:46:25 60° WNW 19:51:03 10° SSW
Spot 2 Rocket 4.4 19:51:23 40° N 19:51:23 40° N 19:54:43 10° N
Terra 4.2 19:57:29 13° NNE 19:57:29 13° NNE 19:58:06 10° N
Cosmos 2026 Rocket 4.4 19:49:53 10° NNW 19:55:56 58° W 19:58:21 35° SSW
ATLAS 2AS CENTAUR R/B 4.4 19:51:15 10° SSW 19:53:45 22° S 19:53:45 22° S
Cosmos 2227 Rocket 2.7 19:59:38 10° NW 20:05:07 52° WSW 20:05:17 51° WSW
USA 238 DEB 4.4 20:00:48 10° NW 20:07:41 51° WSW 20:09:21 43° SSW
USA 238 4.4 20:00:54 10° NW 20:07:48 51° WSW 20:09:24 44° SSW
H-2A R/B 4.4 20:07:03 10° SW 20:11:07 21° W 20:15:14 10° NW
Cosmos 2082 4.1 20:05:40 10° NNW 20:10:31 61° WNW 20:10:31 61° WNW
Lacrosse 5 rocket 3.7 20:21:47 10° WNW 20:23:51 24° W 20:23:51 24° W
Cosmos 1655 Rocket 4.4 20:21:53 10° NNW 20:27:24 62° NW 20:27:24 62° NW
Lacrosse 5 3.7 20:32:20 10° W 20:34:53 27° WNW 20:34:53 27° WNW
CZ-2C R/B 4.2 20:35:38 10° N 20:38:39 30° NNW 20:38:39 30° NNW
USA 234 3.6 20:42:41 60° NW 20:42:41 60° NW 20:47:56 10° WNW
Cosmos 2263 Rocket 3.8 20:38:41 10° NNW 20:41:27 28° N 20:41:27 28° N
Resurs 01 Rocket 4.3 20:48:57 17° WNW 20:48:57 17° WNW 20:50:40 10° NW
CENTAUR R/B 3.8 21:02:55 10° NW 21:09:51 46° WSW 21:09:51 46° WSW
ATLAS 3B R/B 4.0 21:18:59 10° NW 21:22:47 33° WNW 21:22:47 33° WNW
